Time,TemperatureF,DewpointF,PressureIn,WindDirection,WindDirectionDegrees,WindSpeedMPH,WindSpeedGustMPH,Humidity,HourlyPrecipIn,Conditions,Clouds,dailyrainin,SolarRadiationWatts/m^2,SoftwareType,DateUTC
2013-10-18 00:02:00,44.0,10.0,-100.00,NNW,342,0.0,4.0,24,0.00,,,0.00,1.000000,,2013-10-18 06:02:00,
2013-10-18 00:42:00,41.0,9.0,-100.00,WNW,303,1.0,4.0,26,-99.99,,,0.00,1.000000,,2013-10-18 06:42:00,
2013-10-18 05:42:00,33.0,11.0,-100.00,NW,310,4.0,5.0,39,-99.99,,,0.00,1.000000,,2013-10-18 11:42:00,
2013-10-18 06:42:00,31.0,13.0,-100.00,WSW,252,3.0,6.0,46,0.00,,,0.00,1.000000,,2013-10-18 12:42:00,
2013-10-18 06:52:00,31.0,13.0,-100.00,WSW,252,3.0,6.0,46,0.00,,,0.00,1.000000,,2013-10-18 12:52:00,
2013-10-18 07:01:00,31.0,13.0,-100.00,WSW,252,3.0,6.0,46,0.00,,,0.00,1.000000,,2013-10-18 13:01:00,
2013-10-18 07:42:00,31.0,13.0,-100.00,SW,231,4.0,7.0,47,-99.99,,,0.00,1.000000,,2013-10-18 13:42:00,
2013-10-18 07:52:00,31.0,13.0,-100.00,SW,231,4.0,7.0,47,-99.99,,,0.00,1.000000,,2013-10-18 13:52:00,
2013-10-18 08:02:00,31.0,13.0,-100.00,SW,231,4.0,7.0,47,-99.99,,,0.00,1.000000,,2013-10-18 14:02:00,
2013-10-18 09:54:00,41.0,19.0,-100.00,West,271,18.0,25.0,40,0.00,,,0.00,226.000000,,2013-10-18 15:54:00,
2013-10-18 10:04:00,41.0,19.0,-100.00,West,271,18.0,25.0,40,0.00,,,0.00,226.000000,,2013-10-18 16:04:00,
2013-10-18 10:12:00,41.0,19.0,-100.00,West,271,18.0,25.0,40,0.00,,,0.00,226.000000,,2013-10-18 16:12:00,
2013-10-18 10:42:00,45.0,18.0,-100.00,West,279,18.0,26.0,34,0.00,,,0.00,506.000000,,2013-10-18 16:42:00,
2013-10-18 10:53:00,45.0,18.0,-100.00,West,279,18.0,26.0,34,0.00,,,0.00,506.000000,,2013-10-18 16:53:00,
2013-10-18 11:03:00,45.0,18.0,-100.00,West,279,18.0,26.0,34,0.00,,,0.00,506.000000,,2013-10-18 17:03:00,
2013-10-18 11:12:00,45.0,18.0,-100.00,West,279,18.0,26.0,34,0.00,,,0.00,506.000000,,2013-10-18 17:12:00,
2013-10-18 11:42:00,48.0,16.0,-100.00,WNW,290,19.0,29.0,28,0.00,,,0.00,710.000000,,2013-10-18 17:42:00,
2013-10-18 11:52:00,48.0,16.0,-100.00,WNW,290,19.0,29.0,28,0.00,,,0.00,710.000000,,2013-10-18 17:52:00,
2013-10-18 12:02:00,48.0,16.0,-100.00,WNW,290,19.0,29.0,28,0.00,,,0.00,710.000000,,2013-10-18 18:02:00,
2013-10-18 12:12:00,48.0,16.0,-100.00,WNW,290,19.0,29.0,28,0.00,,,0.00,710.000000,,2013-10-18 18:12:00,
2013-10-18 12:42:00,51.0,15.0,-100.00,WNW,289,16.0,28.0,23,0.00,,,0.00,849.000000,,2013-10-18 18:42:00,
2013-10-18 12:52:00,51.0,15.0,-100.00,WNW,289,16.0,28.0,23,0.00,,,0.00,849.000000,,2013-10-18 18:52:00,
2013-10-18 13:01:00,51.0,15.0,-100.00,WNW,289,16.0,28.0,23,0.00,,,0.00,849.000000,,2013-10-18 19:01:00,
2013-10-18 13:11:00,51.0,15.0,-100.00,WNW,289,16.0,28.0,23,0.00,,,0.00,849.000000,,2013-10-18 19:11:00,
2013-10-18 13:42:00,51.0,14.0,-100.00,West,281,17.0,29.0,22,0.00,,,0.00,922.000000,,2013-10-18 19:42:00,
2013-10-18 13:52:00,51.0,14.0,-100.00,West,281,17.0,29.0,22,0.00,,,0.00,922.000000,,2013-10-18 19:52:00,
2013-10-18 14:02:00,51.0,14.0,-100.00,West,281,17.0,29.0,22,0.00,,,0.00,922.000000,,2013-10-18 20:02:00,
2013-10-18 14:11:00,51.0,14.0,-100.00,West,281,17.0,29.0,22,0.00,,,0.00,922.000000,,2013-10-18 20:11:00,
2013-10-18 14:42:00,54.0,9.0,-100.00,West,278,18.0,29.0,16,0.00,,,0.00,915.000000,,2013-10-18 20:42:00,
2013-10-18 14:52:00,54.0,9.0,-100.00,West,278,18.0,29.0,16,0.00,,,0.00,915.000000,,2013-10-18 20:52:00,
2013-10-18 15:02:00,54.0,9.0,-100.00,West,278,18.0,29.0,16,0.00,,,0.00,915.000000,,2013-10-18 21:02:00,
2013-10-18 15:11:00,54.0,9.0,-100.00,West,278,18.0,29.0,16,0.00,,,0.00,915.000000,,2013-10-18 21:11:00,
2013-10-18 15:45:00,53.0,7.0,-100.00,WNW,287,17.0,25.0,15,0.00,,,0.00,831.000000,,2013-10-18 21:45:00,
2013-10-18 15:54:00,53.0,7.0,-100.00,WNW,287,17.0,25.0,15,0.00,,,0.00,831.000000,,2013-10-18 21:54:00,
2013-10-18 16:04:00,53.0,7.0,-100.00,WNW,287,17.0,25.0,15,0.00,,,0.00,831.000000,,2013-10-18 22:04:00,
2013-10-18 16:13:00,53.0,7.0,-100.00,WNW,287,17.0,25.0,15,0.00,,,0.00,831.000000,,2013-10-18 22:13:00,
2013-10-18 16:43:00,53.0,8.0,-100.00,West,278,18.0,30.0,16,0.00,,,0.00,679.000000,,2013-10-18 22:43:00,
2013-10-18 16:54:00,53.0,8.0,-100.00,West,278,18.0,30.0,16,0.00,,,0.00,679.000000,,2013-10-18 22:54:00,
2013-10-18 17:03:00,53.0,8.0,-100.00,West,278,18.0,30.0,16,0.00,,,0.00,679.000000,,2013-10-18 23:03:00,
2013-10-18 17:12:00,53.0,8.0,-100.00,West,278,18.0,30.0,16,0.00,,,0.00,679.000000,,2013-10-18 23:12:00,
2013-10-18 17:43:00,52.0,7.0,-100.00,West,268,17.0,26.0,16,0.00,,,0.00,467.000000,,2013-10-18 23:43:00,
2013-10-18 17:53:00,52.0,7.0,-100.00,West,268,17.0,26.0,16,0.00,,,0.00,467.000000,,2013-10-18 23:53:00,
2013-10-18 18:02:00,52.0,7.0,-100.00,West,268,17.0,26.0,16,0.00,,,0.00,467.000000,,2013-10-19 00:02:00,
2013-10-18 18:11:00,52.0,7.0,-100.00,West,268,17.0,26.0,16,0.00,,,0.00,467.000000,,2013-10-19 00:11:00,
2013-10-18 18:42:00,49.0,6.0,-100.00,West,262,14.0,26.0,17,0.00,,,0.00,217.000000,,2013-10-19 00:42:00,
2013-10-18 18:52:00,49.0,6.0,-100.00,West,262,14.0,26.0,17,0.00,,,0.00,217.000000,,2013-10-19 00:52:00,
2013-10-18 19:02:00,49.0,6.0,-100.00,West,262,14.0,26.0,17,0.00,,,0.00,217.000000,,2013-10-19 01:02:00,
2013-10-18 19:11:00,49.0,6.0,-100.00,West,262,14.0,26.0,17,0.00,,,0.00,217.000000,,2013-10-19 01:11:00,
2013-10-18 19:42:00,43.0,10.0,-100.00,West,281,11.0,20.0,25,0.00,,,0.00,14.000000,,2013-10-19 01:42:00,
2013-10-18 19:53:00,43.0,10.0,-100.00,West,281,11.0,20.0,25,0.00,,,0.00,14.000000,,2013-10-19 01:53:00,
2013-10-18 20:02:00,43.0,10.0,-100.00,West,281,11.0,20.0,25,0.00,,,0.00,14.000000,,2013-10-19 02:02:00,
2013-10-18 20:12:00,43.0,10.0,-100.00,West,281,11.0,20.0,25,0.00,,,0.00,14.000000,,2013-10-19 02:12:00,
2013-10-18 20:42:00,40.0,13.0,-100.00,WNW,285,8.0,14.0,32,0.00,,,0.00,1.000000,,2013-10-19 02:42:00,
2013-10-18 20:52:00,40.0,13.0,-100.00,WNW,285,8.0,14.0,32,0.00,,,0.00,1.000000,,2013-10-19 02:52:00,
2013-10-18 21:02:00,40.0,13.0,-100.00,WNW,285,8.0,14.0,32,0.00,,,0.00,1.000000,,2013-10-19 03:02:00,
2013-10-18 21:11:00,40.0,13.0,-100.00,WNW,285,8.0,14.0,32,0.00,,,0.00,1.000000,,2013-10-19 03:11:00,
2013-10-18 21:45:00,38.0,15.0,-100.00,West,281,9.0,12.0,38,0.00,,,0.00,1.000000,,2013-10-19 03:45:00,
2013-10-18 21:55:00,38.0,15.0,-100.00,West,281,9.0,12.0,38,0.00,,,0.00,1.000000,,2013-10-19 03:55:00,
2013-10-18 22:05:00,38.0,15.0,-100.00,West,281,9.0,12.0,38,0.00,,,0.00,1.000000,,2013-10-19 04:05:00,
2013-10-18 22:13:00,38.0,15.0,-100.00,West,281,9.0,12.0,38,0.00,,,0.00,1.000000,,2013-10-19 04:13:00,
2013-10-18 22:44:00,37.0,14.0,-100.00,NW,307,7.0,13.0,38,0.00,,,-99.99,1.000000,,2013-10-19 04:44:00,
2013-10-18 22:54:00,37.0,14.0,-100.00,NW,307,7.0,13.0,38,0.00,,,-99.99,1.000000,,2013-10-19 04:54:00,
2013-10-18 23:04:00,37.0,14.0,-100.00,NW,307,7.0,13.0,38,0.00,,,-99.99,1.000000,,2013-10-19 05:04:00,
2013-10-18 23:13:00,37.0,14.0,-100.00,NW,307,7.0,13.0,38,0.00,,,-99.99,1.000000,,2013-10-19 05:13:00,
2013-10-18 23:42:00,35.0,12.0,-100.00,West,277,5.0,9.0,38,0.00,,,0.00,1.000000,,2013-10-19 05:42:00,
2013-10-18 23:52:00,35.0,12.0,-100.00,West,277,5.0,9.0,38,0.00,,,0.00,1.000000,,2013-10-19 05:52:00,